Time,TemperatureF,DewpointF,PressureIn,WindDirection,WindDirectionDegrees,WindSpeedMPH,WindSpeedGustMPH,Humidity,HourlyPrecipIn,Conditions,Clouds,dailyrainin,SoftwareType,DateUTC
2013-10-05 00:00:00,66.5,65.9,30.09,WSW,252,0.0,0.0,98,0.00,,,0.00,Wunderground v.1.15,2013-10-05 04:00:00,
2013-10-05 00:05:00,66.4,65.8,30.09,WSW,252,0.0,0.0,98,0.00,,,0.00,Wunderground v.1.15,2013-10-05 04:05:00,
2013-10-05 00:10:00,66.3,65.7,30.09,WSW,252,0.0,0.0,98,0.00,,,0.00,Wunderground v.1.15,2013-10-05 04:10:00,
2013-10-05 00:15:00,66.2,65.6,30.09,WSW,252,0.0,0.0,98,0.00,,,0.00,Wunderground v.1.15,2013-10-05 04:15:00,
2013-10-05 00:20:00,66.1,65.5,30.09,WSW,252,0.0,0.0,98,0.00,,,0.00,Wunderground v.1.15,2013-10-05 04:20:00,
2013-10-05 00:25:00,66.0,65.4,30.08,WSW,252,0.0,0.0,98,0.00,,,0.00,Wunderground v.1.15,2013-10-05 04:25:00,
2013-10-05 00:30:00,66.0,65.4,30.08,WSW,252,0.0,0.0,98,0.00,,,0.00,Wunderground v.1.15,2013-10-05 04:30:00,
2013-10-05 00:35:00,66.0,65.4,30.08,WSW,252,0.0,0.0,98,0.00,,,0.00,Wunderground v.1.15,2013-10-05 04:35:00,
2013-10-05 00:40:00,65.9,65.3,30.08,WSW,252,0.0,0.0,98,0.00,,,0.00,Wunderground v.1.15,2013-10-05 04:40:00,
2013-10-05 00:45:00,66.0,65.4,30.08,WSW,252,0.0,0.0,98,0.00,,,0.00,Wunderground v.1.15,2013-10-05 04:45:00,
2013-10-05 00:50:00,66.0,65.4,30.08,WSW,252,0.0,0.0,98,0.00,,,0.00,Wunderground v.1.15,2013-10-05 04:50:00,
2013-10-05 00:55:00,65.9,65.3,30.08,WSW,252,0.0,0.0,98,0.00,,,0.00,Wunderground v.1.15,2013-10-05 04:55:00,
2013-10-05 01:00:00,65.8,65.2,30.08,WSW,252,0.0,0.0,98,0.00,,,0.00,Wunderground v.1.15,2013-10-05 05:00:00,
2013-10-05 01:10:00,65.7,65.1,30.08,WSW,252,0.0,0.0,98,0.00,,,0.00,Wunderground v.1.15,2013-10-05 05:10:00,
2013-10-05 01:15:00,65.6,65.0,30.08,WSW,252,0.0,0.0,98,0.00,,,0.00,Wunderground v.1.15,2013-10-05 05:15:00,
2013-10-05 01:20:00,65.5,64.9,30.08,WSW,252,0.0,0.0,98,0.00,,,0.00,Wunderground v.1.15,2013-10-05 05:20:00,
2013-10-05 01:30:00,65.4,64.8,30.09,WSW,252,0.0,0.0,98,0.00,,,0.00,Wunderground v.1.15,2013-10-05 05:30:00,
2013-10-05 01:35:00,65.4,65.1,30.09,WSW,252,0.0,0.0,99,0.00,,,0.00,Wunderground v.1.15,2013-10-05 05:35:00,
2013-10-05 01:40:00,65.5,65.2,30.09,WSW,252,0.0,0.0,99,0.00,,,0.00,Wunderground v.1.15,2013-10-05 05:40:00,
2013-10-05 01:45:00,65.5,65.2,30.09,WSW,252,0.0,0.0,99,0.00,,,0.00,Wunderground v.1.15,2013-10-05 05:45:00,
2013-10-05 01:50:00,65.4,65.1,30.09,WSW,252,0.0,0.0,99,0.00,,,0.00,Wunderground v.1.15,2013-10-05 05:50:00,
2013-10-05 01:55:00,65.4,65.1,30.08,WSW,252,0.0,0.0,99,0.00,,,0.00,Wunderground v.1.15,2013-10-05 05:55:00,
2013-10-05 02:05:00,65.0,64.4,30.08,WSW,252,0.0,0.0,98,0.00,,,0.00,Wunderground v.1.15,2013-10-05 06:05:00,
2013-10-05 02:10:00,64.9,64.3,30.08,WSW,252,0.0,0.0,98,0.00,,,0.00,Wunderground v.1.15,2013-10-05 06:10:00,
2013-10-05 02:20:00,64.7,64.1,30.09,WSW,252,0.0,0.0,98,0.00,,,0.00,Wunderground v.1.15,2013-10-05 06:20:00,
2013-10-05 02:25:00,64.6,64.0,30.09,WSW,252,0.0,0.0,98,0.00,,,0.00,Wunderground v.1.15,2013-10-05 06:25:00,
2013-10-05 02:30:00,64.4,63.8,30.08,WSW,252,0.0,0.0,98,0.00,,,0.00,Wunderground v.1.15,2013-10-05 06:30:00,
2013-10-05 02:40:00,64.3,64.0,30.08,WSW,252,0.0,0.0,99,0.00,,,0.00,Wunderground v.1.15,2013-10-05 06:40:00,
2013-10-05 02:45:00,64.1,63.8,30.08,WSW,252,0.0,0.0,99,0.00,,,0.00,Wunderground v.1.15,2013-10-05 06:45:00,
2013-10-05 02:50:00,63.9,63.3,30.08,WSW,252,0.0,0.0,98,0.00,,,0.00,Wunderground v.1.15,2013-10-05 06:50:00,
2013-10-05 02:55:00,63.8,63.2,30.08,WSW,252,0.0,0.0,98,0.00,,,0.00,Wunderground v.1.15,2013-10-05 06:55:00,
2013-10-05 03:00:00,63.8,63.5,30.08,WSW,252,0.0,0.0,99,0.00,,,0.00,Wunderground v.1.15,2013-10-05 07:00:00,
2013-10-05 03:10:00,63.4,62.8,30.08,WSW,252,0.0,0.0,98,0.00,,,0.00,Wunderground v.1.15,2013-10-05 07:10:00,
2013-10-05 03:15:00,63.3,62.7,30.08,WSW,252,0.0,0.0,98,0.00,,,0.00,Wunderground v.1.15,2013-10-05 07:15:00,
2013-10-05 03:20:00,63.4,63.1,30.08,WSW,252,0.0,0.0,99,0.00,,,0.00,Wunderground v.1.15,2013-10-05 07:20:00,
2013-10-05 03:25:00,63.3,63.0,30.08,WSW,252,0.0,0.0,99,0.00,,,0.00,Wunderground v.1.15,2013-10-05 07:25:00,
2013-10-05 03:30:00,63.3,63.0,30.08,WSW,252,0.0,0.0,99,0.00,,,0.00,Wunderground v.1.15,2013-10-05 07:30:00,
2013-10-05 03:35:00,63.4,63.1,30.08,WSW,252,0.0,0.0,99,0.00,,,0.00,Wunderground v.1.15,2013-10-05 07:35:00,
2013-10-05 03:40:00,63.5,63.2,30.08,WSW,252,0.0,0.0,99,0.00,,,0.00,Wunderground v.1.15,2013-10-05 07:40:00,
2013-10-05 03:45:00,63.4,63.1,30.07,WSW,252,0.0,0.0,99,0.00,,,0.00,Wunderground v.1.15,2013-10-05 07:45:00,
2013-10-05 03:50:00,63.4,63.1,30.08,WSW,252,0.0,0.0,99,0.00,,,0.00,Wunderground v.1.15,2013-10-05 07:50:00,
2013-10-05 04:00:00,63.4,63.1,30.07,WSW,252,0.0,0.0,99,0.00,,,0.00,Wunderground v.1.15,2013-10-05 08:00:00,
2013-10-05 04:10:00,63.5,63.2,30.07,WSW,252,0.0,0.0,99,0.00,,,0.00,Wunderground v.1.15,2013-10-05 08:10:00,
2013-10-05 04:15:00,63.7,63.4,30.07,WSW,252,0.0,0.0,99,0.00,,,0.00,Wunderground v.1.15,2013-10-05 08:15:00,
2013-10-05 04:20:00,63.7,63.4,30.07,WSW,252,0.0,0.0,99,0.00,,,0.00,Wunderground v.1.15,2013-10-05 08:20:00,
2013-10-05 04:25:00,63.6,63.3,30.07,WSW,252,0.0,0.0,99,0.00,,,0.00,Wunderground v.1.15,2013-10-05 08:25:00,
2013-10-05 04:35:00,63.4,63.1,30.08,WSW,252,0.0,0.0,99,0.00,,,0.00,Wunderground v.1.15,2013-10-05 08:35:00,
2013-10-05 04:40:00,63.4,63.1,30.08,WSW,252,0.0,0.0,99,0.00,,,0.00,Wunderground v.1.15,2013-10-05 08:40:00,
2013-10-05 04:45:00,63.5,63.2,30.07,WSW,252,0.0,0.0,99,0.00,,,0.00,Wunderground v.1.15,2013-10-05 08:45:00,
2013-10-05 04:50:00,63.7,63.4,30.08,WSW,252,0.0,0.0,99,0.00,,,0.00,Wunderground v.1.15,2013-10-05 08:50:00,
2013-10-05 04:55:00,63.7,63.4,30.08,WSW,252,0.0,0.0,99,0.00,,,0.00,Wunderground v.1.15,2013-10-05 08:55:00,
2013-10-05 05:00:00,63.7,63.4,30.08,WSW,252,0.0,0.0,99,0.00,,,0.00,Wunderground v.1.15,2013-10-05 09:00:00,
2013-10-05 05:10:00,64.2,63.9,30.07,WSW,252,0.0,0.0,99,0.00,,,0.00,Wunderground v.1.15,2013-10-05 09:10:00,
2013-10-05 05:20:00,64.4,64.1,30.07,WSW,252,0.0,0.0,99,0.00,,,0.00,Wunderground v.1.15,2013-10-05 09:20:00,
2013-10-05 05:25:00,64.3,64.0,30.08,WSW,252,0.0,0.0,99,0.00,,,0.00,Wunderground v.1.15,2013-10-05 09:25:00,
2013-10-05 05:30:00,64.3,64.0,30.07,WSW,252,0.0,0.0,99,0.00,,,0.00,Wunderground v.1.15,2013-10-05 09:30:00,
2013-10-05 05:35:00,64.2,63.9,30.08,WSW,252,0.0,0.0,99,0.00,,,0.00,Wunderground v.1.15,2013-10-05 09:35:00,
2013-10-05 05:40:00,64.0,63.7,30.08,WSW,252,0.0,0.0,99,0.00,,,0.00,Wunderground v.1.15,2013-10-05 09:40:00,
2013-10-05 05:50:00,63.9,63.6,30.08,WSW,252,0.0,0.0,99,0.00,,,0.00,Wunderground v.1.15,2013-10-05 09:50:00,
2013-10-05 05:55:00,64.0,63.7,30.08,WSW,252,0.0,0.0,99,0.00,,,0.00,Wunderground v.1.15,2013-10-05 09:55:00,
2013-10-05 06:05:00,63.8,63.5,30.08,WSW,252,0.0,0.0,99,0.00,,,0.00,Wunderground v.1.15,2013-10-05 10:05:00,
2013-10-05 06:10:00,63.8,63.5,30.08,WSW,252,0.0,0.0,99,0.00,,,0.00,Wunderground v.1.15,2013-10-05 10:10:00,
2013-10-05 06:15:00,63.6,63.3,30.08,WSW,252,0.0,0.0,99,0.00,,,0.00,Wunderground v.1.15,2013-10-05 10:15:00,
2013-10-05 06:20:00,63.3,63.0,30.09,WSW,252,0.0,0.0,99,0.00,,,0.00,Wunderground v.1.15,2013-10-05 10:20:00,
2013-10-05 06:25:00,63.1,62.8,30.09,WSW,252,0.0,0.0,99,0.00,,,0.00,Wunderground v.1.15,2013-10-05 10:25:00,
2013-10-05 06:30:00,63.0,62.7,30.09,WSW,252,0.0,0.0,99,0.00,,,0.00,Wunderground v.1.15,2013-10-05 10:30:00,
2013-10-05 06:35:00,63.1,62.8,30.09,NW,312,0.0,0.0,99,0.00,,,0.00,Wunderground v.1.15,2013-10-05 10:35:00,
2013-10-05 06:45:00,63.0,62.7,30.09,NNW,335,0.0,0.0,99,0.00,,,0.00,Wunderground v.1.15,2013-10-05 10:45:00,
2013-10-05 06:50:00,63.1,62.8,30.09,NNW,338,0.0,0.0,99,0.00,,,0.00,Wunderground v.1.15,2013-10-05 10:50:00,
2013-10-05 06:55:00,63.1,62.8,30.09,NNW,338,0.0,0.0,99,0.00,,,0.00,Wunderground v.1.15,2013-10-05 10:55:00,
2013-10-05 07:00:00,63.0,62.7,30.09,NNW,338,0.0,0.0,99,0.00,,,0.00,Wunderground v.1.15,2013-10-05 11:00:00,
2013-10-05 07:10:00,63.0,62.7,30.08,NNW,338,0.0,0.0,99,0.00,,,0.00,Wunderground v.1.15,2013-10-05 11:10:00,
2013-10-05 07:20:00,62.1,61.8,30.09,NNW,337,0.0,0.0,99,0.00,,,0.00,Wunderground v.1.15,2013-10-05 11:20:00,
2013-10-05 07:25:00,62.0,61.7,30.09,NNW,338,0.0,0.0,99,0.00,,,0.00,Wunderground v.1.15,2013-10-05 11:25:00,
2013-10-05 07:30:00,62.1,61.8,30.09,NNW,338,0.0,0.0,99,0.00,,,0.00,Wunderground v.1.15,2013-10-05 11:30:00,
2013-10-05 07:35:00,62.2,61.9,30.09,NNW,338,0.0,0.0,99,0.00,,,0.00,Wunderground v.1.15,2013-10-05 11:35:00,
2013-10-05 07:40:00,62.4,62.1,30.09,NNW,338,0.0,0.0,99,0.00,,,0.00,Wunderground v.1.15,2013-10-05 11:40:00,
2013-10-05 07:45:00,62.8,62.8,30.09,NNW,338,0.0,0.0,100,0.00,,,0.00,Wunderground v.1.15,2013-10-05 11:45:00,
2013-10-05 07:50:00,63.2,63.2,30.09,NNW,338,0.0,0.0,100,0.00,,,0.00,Wunderground v.1.15,2013-10-05 11:50:00,
2013-10-05 08:00:00,63.5,63.5,30.09,NNW,337,0.0,0.0,100,0.00,,,0.00,Wunderground v.1.15,2013-10-05 12:00:00,
2013-10-05 08:10:00,63.8,63.8,30.09,NNW,339,0.0,0.0,100,0.00,,,0.00,Wunderground v.1.15,2013-10-05 12:10:00,
2013-10-05 08:15:00,63.9,63.9,30.09,NNW,338,0.0,0.0,100,0.00,,,0.00,Wunderground v.1.15,2013-10-05 12:15:00,
2013-10-05 08:20:00,64.1,64.1,30.09,NNW,338,0.0,0.0,100,0.00,,,0.00,Wunderground v.1.15,2013-10-05 12:20:00,
2013-10-05 08:30:00,64.5,64.5,30.09,NNW,339,0.0,0.0,100,0.00,,,0.00,Wunderground v.1.15,2013-10-05 12:30:00,
2013-10-05 08:35:00,64.8,64.8,30.09,NNW,337,0.0,0.0,100,0.00,,,0.00,Wunderground v.1.15,2013-10-05 12:35:00,
2013-10-05 08:40:00,65.0,65.0,30.09,NNW,338,0.0,0.0,100,0.00,,,0.00,Wunderground v.1.15,2013-10-05 12:40:00,
2013-10-05 08:45:00,65.2,65.2,30.09,NNW,338,0.0,0.0,100,0.00,,,0.00,Wunderground v.1.15,2013-10-05 12:45:00,
2013-10-05 08:50:00,65.4,65.4,30.09,NNW,338,0.0,0.0,100,0.00,,,0.00,Wunderground v.1.15,2013-10-05 12:50:00,
2013-10-05 08:55:00,65.6,65.6,30.09,SW,225,0.0,0.0,100,0.00,,,0.00,Wunderground v.1.15,2013-10-05 12:55:00,
2013-10-05 09:05:00,66.1,66.1,30.08,SW,232,2.0,3.0,100,0.00,,,0.00,Wunderground v.1.15,2013-10-05 13:05:00,
2013-10-05 09:10:00,66.6,66.6,30.08,SW,217,2.0,2.0,100,0.00,,,0.00,Wunderground v.1.15,2013-10-05 13:10:00,
2013-10-05 09:15:00,67.1,67.1,30.09,SW,218,2.0,2.0,100,0.00,,,0.00,Wunderground v.1.15,2013-10-05 13:15:00,
2013-10-05 09:25:00,67.5,67.5,30.08,SSW,200,3.0,4.0,100,0.00,,,0.00,Wunderground v.1.15,2013-10-05 13:25:00,
2013-10-05 09:30:00,67.8,67.8,30.08,SW,231,3.0,4.0,100,0.00,,,0.00,Wunderground v.1.15,2013-10-05 13:30:00,
2013-10-05 09:35:00,68.2,68.2,30.08,SSW,207,3.0,4.0,100,0.00,,,0.00,Wunderground v.1.15,2013-10-05 13:35:00,
2013-10-05 09:40:00,68.5,68.5,30.08,SSW,208,3.0,3.0,100,0.00,,,0.00,Wunderground v.1.15,2013-10-05 13:40:00,
2013-10-05 09:45:00,68.5,68.5,30.09,SSW,198,3.0,3.0,100,0.00,,,0.00,Wunderground v.1.15,2013-10-05 13:45:00,
2013-10-05 09:50:00,68.6,68.6,30.09,SSW,194,3.0,4.0,100,0.00,,,0.00,Wunderground v.1.15,2013-10-05 13:50:00,
2013-10-05 09:55:00,68.7,68.4,30.09,SSW,201,4.0,4.0,99,0.00,,,0.00,Wunderground v.1.15,2013-10-05 13:55:00,
2013-10-05 10:00:00,68.9,68.6,30.09,South,183,3.0,4.0,99,0.00,,,0.00,Wunderground v.1.15,2013-10-05 14:00:00,
2013-10-05 10:10:00,69.0,68.7,30.08,South,186,4.0,4.0,99,0.00,,,0.00,Wunderground v.1.15,2013-10-05 14:10:00,
2013-10-05 10:15:00,69.2,68.9,30.08,SSW,198,4.0,4.0,99,0.00,,,0.00,Wunderground v.1.15,2013-10-05 14:15:00,
2013-10-05 10:20:00,69.4,69.1,30.08,South,191,4.0,5.0,99,0.00,,,0.00,Wunderground v.1.15,2013-10-05 14:20:00,
2013-10-05 10:30:00,69.7,69.1,30.08,SSW,211,4.0,4.0,98,0.00,,,0.00,Wunderground v.1.15,2013-10-05 14:30:00,
2013-10-05 10:35:00,69.8,69.2,30.08,SSW,197,4.0,4.0,98,0.00,,,0.00,Wunderground v.1.15,2013-10-05 14:35:00,
2013-10-05 10:45:00,70.3,69.7,30.07,SSW,196,4.0,5.0,98,0.00,,,0.00,Wunderground v.1.15,2013-10-05 14:45:00,
2013-10-05 10:50:00,70.3,69.4,30.08,SW,231,4.0,5.0,97,0.00,,,0.00,Wunderground v.1.15,2013-10-05 14:50:00,
2013-10-05 10:55:00,70.7,69.8,30.07,SSW,203,5.0,5.0,97,0.00,,,0.00,Wunderground v.1.15,2013-10-05 14:55:00,
2013-10-05 11:00:00,71.2,70.0,30.08,SSW,194,5.0,8.0,96,0.00,,,0.00,Wunderground v.1.15,2013-10-05 15:00:00,
2013-10-05 11:10:00,72.2,70.7,30.08,SW,229,5.0,5.0,95,0.00,,,0.00,Wunderground v.1.15,2013-10-05 15:10:00,
2013-10-05 11:20:00,73.4,71.6,30.08,SSE,163,4.0,5.0,94,0.00,,,0.00,Wunderground v.1.15,2013-10-05 15:20:00,
2013-10-05 11:25:00,73.6,71.4,30.08,South,188,4.0,5.0,93,0.00,,,0.00,Wunderground v.1.15,2013-10-05 15:25:00,
2013-10-05 11:30:00,73.6,71.1,30.08,SSE,158,4.0,6.0,92,0.00,,,0.00,Wunderground v.1.15,2013-10-05 15:30:00,
2013-10-05 11:35:00,73.7,70.9,30.07,SSW,211,4.0,6.0,91,0.00,,,0.00,Wunderground v.1.15,2013-10-05 15:35:00,
2013-10-05 11:40:00,73.7,70.9,30.07,South,182,4.0,5.0,91,0.00,,,0.00,Wunderground v.1.15,2013-10-05 15:40:00,
2013-10-05 11:45:00,73.6,70.5,30.06,SSW,197,4.0,5.0,90,0.00,,,0.00,Wunderground v.1.15,2013-10-05 15:45:00,
2013-10-05 11:55:00,73.6,70.5,30.08,WSW,248,3.0,4.0,90,0.00,,,0.00,Wunderground v.1.15,2013-10-05 15:55:00,
2013-10-05 12:00:00,73.7,70.6,30.08,SSW,203,3.0,3.0,90,0.00,,,0.00,Wunderground v.1.15,2013-10-05 16:00:00,
2013-10-05 12:10:00,73.7,70.6,30.07,SSW,194,4.0,4.0,90,0.00,,,0.00,Wunderground v.1.15,2013-10-05 16:10:00,
2013-10-05 12:15:00,73.7,70.6,30.07,South,173,4.0,4.0,90,0.00,,,0.00,Wunderground v.1.15,2013-10-05 16:15:00,
2013-10-05 12:20:00,73.7,70.6,30.07,SSE,154,3.0,3.0,90,0.00,,,0.00,Wunderground v.1.15,2013-10-05 16:20:00,
2013-10-05 12:30:00,73.4,70.3,30.08,WSW,241,4.0,5.0,90,0.00,,,0.00,Wunderground v.1.15,2013-10-05 16:30:00,
2013-10-05 12:35:00,73.3,70.2,30.07,SSW,212,4.0,5.0,90,0.00,,,0.00,Wunderground v.1.15,2013-10-05 16:35:00,
2013-10-05 12:40:00,73.2,70.1,30.07,SW,228,3.0,3.0,90,0.00,,,0.00,Wunderground v.1.15,2013-10-05 16:40:00,
2013-10-05 12:45:00,73.2,70.4,30.08,WSW,241,2.0,3.0,91,0.00,,,0.00,Wunderground v.1.15,2013-10-05 16:45:00,
2013-10-05 12:50:00,73.1,70.3,30.08,WSW,238,1.0,1.0,91,0.00,,,0.00,Wunderground v.1.15,2013-10-05 16:50:00,
2013-10-05 12:55:00,73.1,70.3,30.07,WSW,239,0.0,1.0,91,0.00,,,0.00,Wunderground v.1.15,2013-10-05 16:55:00,
2013-10-05 13:05:00,73.0,70.5,30.07,SW,233,0.0,0.0,92,0.18,,,0.02,Wunderground v.1.15,2013-10-05 17:05:00,
2013-10-05 13:10:00,72.9,70.8,30.07,WSW,239,0.0,0.0,93,0.16,,,0.03,Wunderground v.1.15,2013-10-05 17:10:00,
2013-10-05 13:15:00,72.6,70.5,30.08,WSW,241,0.0,0.0,93,0.08,,,0.03,Wunderground v.1.15,2013-10-05 17:15:00,
2013-10-05 13:20:00,72.3,70.5,30.07,SW,236,0.0,0.0,94,0.37,,,0.06,Wunderground v.1.15,2013-10-05 17:20:00,
2013-10-05 13:25:00,72.0,70.5,30.08,SW,235,0.0,0.0,95,0.31,,,0.08,Wunderground v.1.15,2013-10-05 17:25:00,
2013-10-05 13:30:00,71.7,70.2,30.07,SSW,193,0.0,0.0,95,0.78,,,0.17,Wunderground v.1.15,2013-10-05 17:30:00,
2013-10-05 13:40:00,71.4,70.2,30.06,South,177,1.0,1.0,96,0.24,,,0.22,Wunderground v.1.15,2013-10-05 17:40:00,
2013-10-05 13:45:00,71.3,70.1,30.05,South,176,0.0,1.0,96,0.09,,,0.22,Wunderground v.1.15,2013-10-05 17:45:00,
2013-10-05 13:50:00,71.4,70.5,30.05,South,176,0.0,0.0,97,0.05,,,0.22,Wunderground v.1.15,2013-10-05 17:50:00,
2013-10-05 13:55:00,71.6,70.7,30.04,South,174,0.0,0.0,97,0.04,,,0.22,Wunderground v.1.15,2013-10-05 17:55:00,
2013-10-05 14:00:00,72.2,71.6,30.04,South,174,0.0,0.0,98,0.00,,,0.22,Wunderground v.1.15,2013-10-05 18:00:00,
2013-10-05 14:10:00,74.1,73.8,30.03,South,174,0.0,0.0,99,0.00,,,0.22,Wunderground v.1.15,2013-10-05 18:10:00,
2013-10-05 14:15:00,74.3,73.1,30.04,South,182,0.0,0.0,96,0.00,,,0.22,Wunderground v.1.15,2013-10-05 18:15:00,
2013-10-05 14:20:00,74.2,72.4,30.04,South,180,0.0,0.0,94,0.00,,,0.22,Wunderground v.1.15,2013-10-05 18:20:00,
2013-10-05 14:25:00,74.1,71.9,30.03,South,180,0.0,0.0,93,0.00,,,0.22,Wunderground v.1.15,2013-10-05 18:25:00,
2013-10-05 14:30:00,74.0,72.2,30.04,South,179,0.0,0.0,94,0.00,,,0.22,Wunderground v.1.15,2013-10-05 18:30:00,
2013-10-05 14:35:00,73.9,71.7,30.03,South,179,0.0,0.0,93,0.00,,,0.22,Wunderground v.1.15,2013-10-05 18:35:00,
2013-10-05 14:45:00,73.6,71.8,30.03,South,179,0.0,0.0,94,0.00,,,0.22,Wunderground v.1.15,2013-10-05 18:45:00,
2013-10-05 14:50:00,73.5,71.7,30.02,South,177,0.0,0.0,94,0.00,,,0.23,Wunderground v.1.15,2013-10-05 18:50:00,
2013-10-05 14:55:00,73.3,71.5,30.02,South,176,0.0,0.0,94,0.00,,,0.23,Wunderground v.1.15,2013-10-05 18:55:00,
2013-10-05 15:00:00,73.0,71.5,30.02,South,176,0.0,0.0,95,0.00,,,0.23,Wunderground v.1.15,2013-10-05 19:00:00,
2013-10-05 15:10:00,72.5,71.0,30.03,South,176,0.0,0.0,95,0.04,,,0.24,Wunderground v.1.15,2013-10-05 19:10:00,
2013-10-05 15:20:00,72.0,70.8,30.03,SE,136,0.0,1.0,96,0.59,,,0.32,Wunderground v.1.15,2013-10-05 19:20:00,
2013-10-05 15:25:00,72.0,70.8,30.03,SSE,151,0.0,1.0,96,1.25,,,0.43,Wunderground v.1.15,2013-10-05 19:25:00,
2013-10-05 15:30:00,71.9,71.0,30.04,SSW,207,1.0,4.0,97,0.41,,,0.49,Wunderground v.1.15,2013-10-05 19:30:00,
2013-10-05 15:35:00,71.2,69.7,30.03,SSE,167,3.0,4.0,95,0.51,,,0.54,Wunderground v.1.15,2013-10-05 19:35:00,
2013-10-05 15:40:00,70.6,69.1,30.02,WSW,257,3.0,3.0,95,0.26,,,0.57,Wunderground v.1.15,2013-10-05 19:40:00,
2013-10-05 15:45:00,70.5,69.3,30.02,NE,49,1.0,3.0,96,0.12,,,0.58,Wunderground v.1.15,2013-10-05 19:45:00,
2013-10-05 15:50:00,70.7,69.8,30.02,NE,49,0.0,0.0,97,0.08,,,0.58,Wunderground v.1.15,2013-10-05 19:50:00,
2013-10-05 15:55:00,70.9,70.0,30.03,WSW,257,0.0,0.0,97,0.05,,,0.58,Wunderground v.1.15,2013-10-05 19:55:00,
2013-10-05 16:05:00,71.2,70.0,30.03,SW,235,0.0,0.0,96,0.00,,,0.58,Wunderground v.1.15,2013-10-05 20:05:00,
2013-10-05 16:10:00,71.3,70.1,30.03,SW,224,0.0,0.0,96,0.00,,,0.58,Wunderground v.1.15,2013-10-05 20:10:00,
2013-10-05 16:15:00,71.7,70.8,30.02,SW,224,0.0,0.0,97,0.00,,,0.58,Wunderground v.1.15,2013-10-05 20:15:00,
2013-10-05 16:20:00,71.8,70.6,30.02,SW,224,0.0,0.0,96,0.00,,,0.58,Wunderground v.1.15,2013-10-05 20:20:00,
2013-10-05 16:25:00,71.9,70.4,30.02,SW,222,0.0,0.0,95,0.00,,,0.58,Wunderground v.1.15,2013-10-05 20:25:00,
2013-10-05 16:30:00,71.9,70.4,30.02,SW,217,0.0,0.0,95,0.00,,,0.58,Wunderground v.1.15,2013-10-05 20:30:00,
2013-10-05 16:35:00,72.0,70.5,30.02,SW,217,0.0,0.0,95,0.00,,,0.58,Wunderground v.1.15,2013-10-05 20:35:00,
2013-10-05 16:45:00,71.8,70.3,30.02,SW,217,0.0,0.0,95,0.00,,,0.58,Wunderground v.1.15,2013-10-05 20:45:00,
2013-10-05 16:50:00,71.8,70.3,30.01,SW,229,0.0,0.0,95,0.00,,,0.58,Wunderground v.1.15,2013-10-05 20:50:00,
2013-10-05 16:55:00,71.7,70.2,30.01,WSW,241,0.0,0.0,95,0.00,,,0.58,Wunderground v.1.15,2013-10-05 20:55:00,
2013-10-05 17:00:00,71.6,70.4,30.01,WSW,241,0.0,0.0,96,0.00,,,0.58,Wunderground v.1.15,2013-10-05 21:00:00,
2013-10-05 17:10:00,71.6,70.4,30.01,WSW,238,0.0,0.0,96,0.00,,,0.58,Wunderground v.1.15,2013-10-05 21:10:00,
2013-10-05 17:20:00,71.5,70.3,30.00,SE,139,0.0,1.0,96,0.00,,,0.58,Wunderground v.1.15,2013-10-05 21:20:00,
2013-10-05 17:25:00,71.4,69.9,30.00,SE,140,1.0,1.0,95,0.00,,,0.58,Wunderground v.1.15,2013-10-05 21:25:00,
2013-10-05 17:30:00,71.4,69.9,30.00,SSW,193,1.0,1.0,95,0.00,,,0.58,Wunderground v.1.15,2013-10-05 21:30:00,
2013-10-05 17:35:00,71.4,69.9,30.00,SSW,207,2.0,2.0,95,0.00,,,0.58,Wunderground v.1.15,2013-10-05 21:35:00,
2013-10-05 17:40:00,71.4,69.9,30.00,SW,219,2.0,2.0,95,0.00,,,0.58,Wunderground v.1.15,2013-10-05 21:40:00,
2013-10-05 17:45:00,71.3,69.8,30.00,SE,125,1.0,2.0,95,0.00,,,0.58,Wunderground v.1.15,2013-10-05 21:45:00,
2013-10-05 17:55:00,71.2,69.7,30.00,SSE,148,0.0,0.0,95,0.00,,,0.58,Wunderground v.1.15,2013-10-05 21:55:00,
2013-10-05 18:00:00,71.2,69.7,30.00,SSE,153,0.0,0.0,95,0.00,,,0.58,Wunderground v.1.15,2013-10-05 22:00:00,
2013-10-05 18:10:00,71.0,69.5,29.99,SSE,153,0.0,0.0,95,0.00,,,0.58,Wunderground v.1.15,2013-10-05 22:10:00,
2013-10-05 18:15:00,70.8,69.3,29.99,SSE,151,0.0,0.0,95,0.00,,,0.58,Wunderground v.1.15,2013-10-05 22:15:00,
2013-10-05 18:20:00,70.6,69.1,29.99,SSE,151,0.0,0.0,95,0.00,,,0.58,Wunderground v.1.15,2013-10-05 22:20:00,
2013-10-05 18:25:00,70.4,68.9,29.99,SSE,151,0.0,0.0,95,0.00,,,0.58,Wunderground v.1.15,2013-10-05 22:25:00,
2013-10-05 18:35:00,70.1,68.6,29.99,SSE,151,0.0,0.0,95,0.00,,,0.58,Wunderground v.1.15,2013-10-05 22:35:00,
2013-10-05 18:40:00,69.9,68.7,29.99,SSE,151,0.0,0.0,96,0.00,,,0.58,Wunderground v.1.15,2013-10-05 22:40:00,
2013-10-05 18:45:00,69.8,68.6,29.99,SSE,151,0.0,0.0,96,0.00,,,0.58,Wunderground v.1.15,2013-10-05 22:45:00,
2013-10-05 18:50:00,69.6,68.4,29.99,SSE,151,0.0,0.0,96,0.00,,,0.58,Wunderground v.1.15,2013-10-05 22:50:00,
2013-10-05 19:00:00,69.2,68.0,30.00,SSE,151,0.0,0.0,96,0.00,,,0.58,Wunderground v.1.15,2013-10-05 23:00:00,
2013-10-05 19:10:00,69.1,68.2,30.00,SSW,199,0.0,0.0,97,0.00,,,0.59,Wunderground v.1.15,2013-10-05 23:10:00,
2013-10-05 19:15:00,69.2,68.6,30.00,West,273,1.0,2.0,98,0.00,,,0.59,Wunderground v.1.15,2013-10-05 23:15:00,
2013-10-05 19:20:00,69.2,68.6,30.00,West,273,2.0,2.0,98,0.05,,,0.60,Wunderground v.1.15,2013-10-05 23:20:00,
2013-10-05 19:25:00,69.3,68.7,30.00,West,271,1.0,2.0,98,0.05,,,0.60,Wunderground v.1.15,2013-10-05 23:25:00,
2013-10-05 19:30:00,69.3,68.7,30.01,WSW,257,1.0,2.0,98,0.06,,,0.61,Wunderground v.1.15,2013-10-05 23:30:00,
2013-10-05 19:40:00,69.4,68.8,30.01,SSE,162,2.0,2.0,98,0.15,,,0.66,Wunderground v.1.15,2013-10-05 23:40:00,
2013-10-05 19:45:00,69.4,68.8,30.00,SSE,159,1.0,2.0,98,0.09,,,0.66,Wunderground v.1.15,2013-10-05 23:45:00,
2013-10-05 19:50:00,69.4,68.8,30.00,SSE,159,0.0,0.0,98,0.05,,,0.66,Wunderground v.1.15,2013-10-05 23:50:00,
2013-10-05 19:55:00,69.3,68.7,30.01,SSE,158,0.0,0.0,98,0.04,,,0.66,Wunderground v.1.15,2013-10-05 23:55:00,
2013-10-05 20:00:00,69.3,68.7,30.01,SSE,151,0.0,0.0,98,0.00,,,0.67,Wunderground v.1.15,2013-10-06 00:00:00,
2013-10-05 20:10:00,69.2,68.6,30.01,SSE,147,0.0,0.0,98,0.29,,,0.70,Wunderground v.1.15,2013-10-06 00:10:00,
2013-10-05 20:20:00,69.3,69.0,30.02,SW,228,1.0,1.0,99,0.74,,,0.78,Wunderground v.1.15,2013-10-06 00:20:00,
2013-10-05 20:25:00,69.4,69.1,30.01,SW,217,1.0,2.0,99,0.18,,,0.80,Wunderground v.1.15,2013-10-06 00:25:00,
2013-10-05 20:30:00,69.4,69.1,30.02,SW,224,1.0,2.0,99,0.73,,,0.85,Wunderground v.1.15,2013-10-06 00:30:00,
2013-10-05 20:35:00,69.4,69.1,30.02,WSW,257,2.0,2.0,99,1.06,,,0.91,Wunderground v.1.15,2013-10-06 00:35:00,
2013-10-05 20:40:00,69.3,69.0,30.01,WSW,256,2.0,2.0,99,0.40,,,0.95,Wunderground v.1.15,2013-10-06 00:40:00,
2013-10-05 20:45:00,69.1,68.5,30.02,SW,217,1.0,2.0,98,0.16,,,0.96,Wunderground v.1.15,2013-10-06 00:45:00,
2013-10-05 20:55:00,68.9,68.3,30.01,SW,214,0.0,0.0,98,0.18,,,1.01,Wunderground v.1.15,2013-10-06 00:55:00,
2013-10-05 21:05:00,68.6,68.0,30.02,SW,217,0.0,0.0,98,0.05,,,1.01,Wunderground v.1.15,2013-10-06 01:05:00,
2013-10-05 21:10:00,68.6,68.0,30.02,SW,217,0.0,0.0,98,0.04,,,1.01,Wunderground v.1.15,2013-10-06 01:10:00,
2013-10-05 21:15:00,68.5,67.9,30.02,SW,221,0.0,0.0,98,0.00,,,1.01,Wunderground v.1.15,2013-10-06 01:15:00,
2013-10-05 21:20:00,68.4,67.8,30.02,SW,221,0.0,0.0,98,0.00,,,1.01,Wunderground v.1.15,2013-10-06 01:20:00,
2013-10-05 21:30:00,68.3,67.7,30.02,SSW,205,0.0,2.0,98,0.37,,,1.07,Wunderground v.1.15,2013-10-06 01:30:00,
2013-10-05 21:35:00,68.3,68.0,30.01,SSW,205,1.0,2.0,99,0.33,,,1.10,Wunderground v.1.15,2013-10-06 01:35:00,
2013-10-05 21:40:00,68.4,68.1,30.01,SW,215,1.0,1.0,99,0.10,,,1.10,Wunderground v.1.15,2013-10-06 01:40:00,
2013-10-05 21:45:00,68.4,68.1,30.01,SW,215,0.0,1.0,99,0.06,,,1.10,Wunderground v.1.15,2013-10-06 01:45:00,
2013-10-05 21:50:00,68.4,68.1,30.01,SW,215,0.0,0.0,99,0.32,,,1.12,Wunderground v.1.15,2013-10-06 01:50:00,
2013-10-05 21:55:00,68.4,68.1,30.00,SW,215,0.0,0.0,99,0.20,,,1.13,Wunderground v.1.15,2013-10-06 01:55:00,
2013-10-05 22:05:00,68.4,68.1,30.01,SW,215,0.0,0.0,99,0.07,,,1.14,Wunderground v.1.15,2013-10-06 02:05:00,
2013-10-05 22:10:00,68.3,68.0,30.01,SW,214,0.0,0.0,99,0.04,,,1.14,Wunderground v.1.15,2013-10-06 02:10:00,
2013-10-05 22:15:00,68.3,68.0,30.00,SW,214,0.0,0.0,99,0.00,,,1.14,Wunderground v.1.15,2013-10-06 02:15:00,
2013-10-05 22:20:00,68.3,68.0,30.00,SW,214,0.0,0.0,99,0.00,,,1.15,Wunderground v.1.15,2013-10-06 02:20:00,
2013-10-05 22:25:00,68.3,68.0,30.00,SW,218,0.0,0.0,99,0.00,,,1.15,Wunderground v.1.15,2013-10-06 02:25:00,
2013-10-05 22:30:00,68.2,67.9,30.00,SW,215,0.0,0.0,99,0.00,,,1.15,Wunderground v.1.15,2013-10-06 02:30:00,
2013-10-05 22:35:00,68.2,67.9,30.00,SW,215,0.0,0.0,99,0.00,,,1.15,Wunderground v.1.15,2013-10-06 02:35:00,
2013-10-05 22:40:00,68.1,67.8,30.00,SW,215,0.0,0.0,99,0.00,,,1.15,Wunderground v.1.15,2013-10-06 02:40:00,
2013-10-05 22:50:00,67.9,67.6,30.00,SW,215,0.0,0.0,99,0.00,,,1.15,Wunderground v.1.15,2013-10-06 02:50:00,
2013-10-05 22:55:00,67.8,67.5,30.00,SW,215,0.0,0.0,99,0.00,,,1.15,Wunderground v.1.15,2013-10-06 02:55:00,
2013-10-05 23:00:00,67.6,67.3,30.00,SW,215,0.0,0.0,99,0.00,,,1.15,Wunderground v.1.15,2013-10-06 03:00:00,
2013-10-05 23:10:00,67.2,66.9,29.99,SW,215,0.0,0.0,99,0.00,,,1.15,Wunderground v.1.15,2013-10-06 03:10:00,
2013-10-05 23:15:00,67.0,66.7,29.99,SW,215,0.0,0.0,99,0.00,,,1.15,Wunderground v.1.15,2013-10-06 03:15:00,
2013-10-05 23:20:00,66.7,66.4,30.00,SW,215,0.0,0.0,99,0.00,,,1.15,Wunderground v.1.15,2013-10-06 03:20:00,
2013-10-05 23:30:00,66.5,66.2,29.99,SW,215,0.0,0.0,99,0.00,,,1.15,Wunderground v.1.15,2013-10-06 03:30:00,
2013-10-05 23:35:00,66.4,66.1,29.99,SW,215,0.0,0.0,99,0.00,,,1.15,Wunderground v.1.15,2013-10-06 03:35:00,
2013-10-05 23:40:00,66.5,66.2,29.99,SW,215,0.0,0.0,99,0.00,,,1.15,Wunderground v.1.15,2013-10-06 03:40:00,
2013-10-05 23:50:00,66.6,66.3,29.98,SW,215,0.0,0.0,99,0.00,,,1.15,Wunderground v.1.15,2013-10-06 03:50:00,
2013-10-05 23:55:00,66.6,66.3,29.98,SW,215,0.0,0.0,99,0.00,,,1.15,Wunderground v.1.15,2013-10-06 03:55:00,